Regional Weather Roundup
Issued by NWS

Home | Current Version | Previous Version | Graphics & Text | Print | Product List | Glossary On
Versions: 1 2 3 4 5 6 7 8 9 10 11 12 13 14 15 16 17 18 19 20 21 22 23 24 25 26 27 28 29 30 31 32 33 34 35 36 37 38 39 40 41 42 43 44 45 46 47 48 49 50
000
ASUS43 KMKX 291818
RWRWI

WISCONSIN REGIONAL WEATHER ROUNDUP
NATIONAL WEATHER SERVICE MILWAUKEE/SULLIVAN WI
100 PM CDT FRI MAY 29 2015

NOTE: "FAIR" INDICATES FEW OR NO CLOUDS BELOW 12,000 FEET WITH NO
SIGNIFICANT WEATHER AND/OR OBSTRUCTIONS TO VISIBILITY.

WIZ001-002-006>008-014>016-023>028-291900-
NORTHWEST WISCONSIN

CITY           SKY/WX    TMP DP  RH WIND       PRES   REMARKS
SUPERIOR ARPT  CLOUDY    67  59  75 NW12      29.91R
6HR MIN TEMP:  44; 6HR MAX TEMP:  68;

ASHLAND        CLOUDY    71  63  75 VRB5      29.88S
6HR MIN TEMP:  61; 6HR MAX TEMP:  71; 6HR PCP:  0.02;

HAYWARD        LGT RAIN  66  62  87 CALM      29.91R FOG
6HR MIN TEMP:  61; 6HR MAX TEMP:  68; 6HR PCP:  0.02;

SIREN          LGT RAIN  65  63  93 CALM      29.91R
6HR MIN TEMP:  62; 6HR MAX TEMP:  69; 6HR PCP:  0.05;

CUMBERLAND     CLOUDY    66  63  88 NW3       29.91S
RICE LAKE      CLOUDY    68  63  83 CALM      29.92R
6HR MIN TEMP:  61; 6HR MAX TEMP:  68; 6HR PCP:  0.11;

CHETEK         CLOUDY    69  65  88 S3        29.91R
6HR MIN TEMP:  61; 6HR MAX TEMP:  69; 6HR PCP:  0.04;

LADYSMITH      CLOUDY    70  64  83 SW6       29.93S
6HR MIN TEMP:  63; 6HR MAX TEMP:  70;

EAU CLAIRE     CLOUDY    71  64  78 S9        29.90R
6HR MIN TEMP:  64; 6HR MAX TEMP:  71; 6HR PCP:  0.08;

MENOMONIE      CLOUDY    71  65  82 SW9       29.91R
6HR MIN TEMP:  63; 6HR MAX TEMP:  71;

NEW RICHMOND   CLOUDY    70  65  86 SW5       29.90S
6HR MIN TEMP:  61; 6HR MAX TEMP:  70;

OSCEOLA        CLOUDY    71  69  93 SW7       29.91F
6HR MIN TEMP:  62; 6HR MAX TEMP:  71;

$$

WIZ003>005-009-010-017-018-291900-
NORTH CENTRAL WISCONSIN

CITY           SKY/WX    TMP DP  RH WIND       PRES   REMARKS
MANITOWISH WTR CLOUDY    65  65  98 SW13      29.91R
6HR MIN TEMP:  60; 6HR MAX TEMP:  68; 6HR PCP:  0.03;

ARBOR VITAE    CLOUDY    69  65  87 W8        29.91S
6HR MIN TEMP:  62; 6HR MAX TEMP:  71; 6HR PCP:  0.02;

WOODRUFF       CLOUDY    69  65  87 W8        29.91S
6HR MIN TEMP:  62; 6HR MAX TEMP:  71; 6HR PCP:  0.02;

RHINELANDER    CLOUDY    70  62  76 SW8G21    29.92F
6HR MIN TEMP:  61; 6HR MAX TEMP:  72; 6HR PCP: TRACE;

EAGLE RIVER    CLOUDY    71  58  63 SW10G17   29.90F
6HR MIN TEMP:  60; 6HR MAX TEMP:  72;

LAND O LAKES   CLOUDY    73  59  62 W7        29.91S
6HR MIN TEMP:  62; 6HR MAX TEMP:  73;

PHILLIPS       CLOUDY    65  64  96 SW6       29.91S
6HR MIN TEMP:  62; 6HR MAX TEMP:  66; 6HR PCP:  0.03;

TOMAHAWK       CLOUDY    69  61  76 SW5       29.93S
6HR MIN TEMP:  60; 6HR MAX TEMP:  70;

MEDFORD        CLOUDY    69  63  83 SW8       29.92F
6HR MIN TEMP:  60; 6HR MAX TEMP:  69;

MERRILL        CLOUDY    72  64  74 SW10G17   29.93S
$$

WIZ029-030-035-036-043>047-291900-
CENTRAL WISCONSIN

CITY           SKY/WX    TMP DP  RH WIND       PRES   REMARKS
WAUSAU         CLOUDY    75  62  64 SW9       29.91F
6HR MIN TEMP:  62; 6HR MAX TEMP:  75;

MOSINEE        PTSUNNY   75  64  69 SW9G16    29.93F
MARSHFIELD     CLOUDY    75  62  64 W12       29.92F
6HR MIN TEMP:  62; 6HR MAX TEMP:  75;

STEVENS POINT  PTSUNNY   76  60  57 S13       29.93F
6HR MIN TEMP:  60; 6HR MAX TEMP:  76;

WAUPACA        CLOUDY    77  66  68 S10       29.94F
6HR MIN TEMP:  64; 6HR MAX TEMP:  77;

WAUTOMA        CLOUDY    78  67  68 VRB6      29.94F HX  80
6HR MIN TEMP:  62; 6HR MAX TEMP:  78; 6HR PCP: TRACE;

WISC RAPIDS    PTSUNNY   77  63  61 S14       29.93F
6HR MIN TEMP:  63; 6HR MAX TEMP:  77;

CAMP DOUGLAS   CLOUDY    77  70  78 S10       29.92F
$$

WIZ011>013-019>022-031-037>040-048>050-291900-
NORTHEAST WISCONSIN

CITY           SKY/WX    TMP DP  RH WIND       PRES   REMARKS
ANTIGO         CLOUDY    73  62  70 SW14G20   29.93F
SHAWANO        CLOUDY    76  64  67 S8        29.93F
6HR MIN TEMP:  64; 6HR MAX TEMP:  76;

OCONTO         CLOUDY    74  64  71 SW8       29.93F
6HR MIN TEMP:  64; 6HR MAX TEMP:  74; 6HR PCP:  0.02;

STURGEON BAY   CLOUDY    68  61  77 S14       29.98F
6HR MIN TEMP:  57; 6HR MAX TEMP:  68;

GREEN BAY      CLOUDY    76  64  66 SW15      29.94F
6HR MIN TEMP:  65; 6HR MAX TEMP:  77; 6HR PCP:  0.01;

MANITOWOC      PTSUNNY   72  62  71 S14       29.96F
6HR MIN TEMP:  58; 6HR MAX TEMP:  72; 6HR PCP:  0.01;

APPLETON       PTSUNNY   73  63  68 S14       29.96F
CLINTONVILLE   CLOUDY    73  63  68 SW14      29.93F
OSHKOSH        CLOUDY    77  64  64 SW13      29.94F
6HR MIN TEMP:  64; 6HR MAX TEMP:  77; 6HR PCP:  0.03;

$$

WIZ032>034-041-042-053>061-291900-
SOUTHWEST WISCONSIN

CITY           SKY/WX    TMP DP  RH WIND       PRES   REMARKS
LA CROSSE      CLOUDY    78  64  61 S8        29.90F HX  80
6HR MIN TEMP:  67; 6HR MAX TEMP:  78;

SPARTA         PTSUNNY   76  61  59 SW8       29.93S
6HR MIN TEMP:  61; 6HR MAX TEMP:  77;

VIROQUA        CLOUDY    75  59  58 S13       29.94F
6HR MIN TEMP:  62; 6HR MAX TEMP:  76; 6HR PCP:  0.01;

BOSCOBEL       CLOUDY    77  62  59 SW5       29.92F
6HR MIN TEMP:  65; 6HR MAX TEMP:  78;

PRAIRIE DU CHI CLOUDY    76  61  59 S6        29.92F
6HR MIN TEMP:  65; 6HR MAX TEMP:  76;

PLATTEVILLE    CLOUDY    74  68  80 SW10      29.95S
6HR MIN TEMP:  65; 6HR MAX TEMP:  74;

$$

WIZ056-057-062-063-064-067-068-291900-
SOUTH CENTRAL WISCONSIN

CITY           SKY/WX    TMP DP  RH WIND       PRES   REMARKS
REEDSBURG      CLOUDY    75  67  74 S8        29.94S
6HR MIN TEMP:  63; 6HR MAX TEMP:  75;

BARABOO/DELLS  CLOUDY    73  64  75 SW5       29.95S
6HR MIN TEMP:  63; 6HR MAX TEMP:  74;

LONE ROCK      CLOUDY    75  65  70 NW7       29.93F
6HR MIN TEMP:  65; 6HR MAX TEMP:  76;

MINERAL POINT  CLOUDY    75  68  78 SW6       29.95F
MADISON        CLOUDY    76  63  64 S15       29.94F
6HR MIN TEMP:  63; 6HR MAX TEMP:  78; 6HR PCP:  0.02;

MIDDLETON      CLOUDY    77  65  65 S13       29.94F
6HR MIN TEMP:  65; 6HR MAX TEMP:  78; 6HR PCP:  0.24;

WATERTOWN      LGT RAIN N/A N/A N/A SW6       29.95F
MONROE         CLOUDY    73  64  73 S14G21    29.95F
JANESVILLE     CLOUDY    75  72  88 S7        29.95F
$$

WIZ051-052-058>065-066-070>072-291900-
SOUTHEAST WISCONSIN

CITY           SKY/WX    TMP DP  RH WIND       PRES   REMARKS
MILWAUKEE      LGT RAIN  72  64  76 S12       29.98S
6HR MIN TEMP:  65; 6HR MAX TEMP:  80; 6HR PCP: TRACE;

WAUKESHA       PTSUNNY   72  61  68 SE12G22   29.99F
MILWAUKEE/TIMM LGT RAIN  79  61  53 S13G18    29.98F HX  80
RACINE         LGT RAIN  70  64  83 S7        30.00F FOG
6HR MIN TEMP:  66; 6HR MAX TEMP:  74; 6HR PCP:  0.05;

BURLINGTON     PTSUNNY   75  64  68 SE13      29.97F
6HR MIN TEMP:  59; 6HR MAX TEMP:  79; 6HR PCP:  0.02;

KENOSHA        CLOUDY    77  67  71 S8        29.98F
6HR MIN TEMP:  67; 6HR MAX TEMP:  79; 6HR PCP:  0.01;

FOND DU LAC    CLOUDY    78  66  66 SW15      29.94F HX  80
6HR MIN TEMP:  65; 6HR MAX TEMP:  79; 6HR PCP:  0.03;

SHEBOYGAN      PTSUNNY   70  62  76 S8        29.97F
6HR MIN TEMP:  60; 6HR MAX TEMP:  74; 6HR PCP:  0.10;

WEST BEND      CLOUDY    77  63  61 SE7       29.96F
JUNEAU         LGT RAIN  76  66  69 S14       29.96F
6HR MIN TEMP:  62; 6HR MAX TEMP:  78; 6HR PCP:  0.09;

$$

LSZ147-162-291900-
LAKE SUPERIOR

STATION/POSITION TIME  TEMP    WIND        PRES    WAVE
                       AIR SEA DIR/SP/G            HT/PER
                 (UTC) (F)     (DEG/KT/KT) (MB)    (FT/S)
W MID LAKE BUOY  1750   43 37  200/  6/  6   N/A     1
DEVILS ISLAND    1800   48     260/  6/  9   N/A
PORT WING        1700   49      CALM  /  3   N/A
SAXON HARBOR     1640   67     210/  4/  9   N/A
$$

LMZ867-665-643>646-291900-
LAKE MICHIGAN

STATION/POSITION TIME  TEMP    WIND        PRES    WAVE
                       AIR SEA DIR/SP/G            HT/PER
                 (UTC) (F)     (DEG/KT/KT) (MB)    (FT/S)
CHAMBERS ISLAND  1700   63     150/  4/  8   N/A
N MID LAKE BUOY  1750   43 37  190/ 10/ 12   N/A     1/ 3


USA.gov is the U.S. government's official web portal to all federal, state and local government web resources and services.